Location: ????????
(56.1167°N, 38.6333°E)
Time: 13:28:03
(UTC+00:00)

Cosmos 1833 - Visible Passes

Search period start: 14 February 2026 00:00
Search period end: 24 February 2026 00:00
Orbit: 831 x 867 km, 70.9° (Epoch: 13 February)

Date Brightness Start Highest point End Pass type
(mag) Time Alt. Az. Time Alt. Az. Time Alt. Az.
14 Feb 5.1 15:36:39 10° WSW 15:42:16 49° NW 15:47:55 10° NNE visible
14 Feb 6.2 17:23:23 10° WNW 17:27:52 22° NNW 17:31:47 12° NNE visible
14 Feb 6.4 19:10:07 10° NW 19:13:45 19° N 19:13:45 19° N visible
14 Feb 7.0 20:55:01 10° NNW 20:55:42 13° NNW 20:55:42 13° NNW visible
15 Feb 5.1 15:23:45 10° WSW 15:29:22 50° NW 15:35:01 10° NNE visible
15 Feb 6.2 17:10:28 10° WNW 17:14:58 22° NNW 17:19:16 11° NNE visible
15 Feb 6.3 18:57:12 10° NW 19:01:13 19° N 19:01:13 19° N visible
15 Feb 6.8 20:42:07 10° NNW 20:43:11 15° NNW 20:43:11 15° NNW visible
16 Feb 5.1 15:10:51 10° WSW 15:16:28 50° NW 15:22:07 10° NNE visible
16 Feb 6.2 16:57:33 10° WNW 17:02:03 23° NNW 17:06:34 10° NNE visible
16 Feb 6.2 18:44:18 10° NW 18:48:24 19° N 18:48:41 19° NNE visible
16 Feb 6.7 20:29:13 10° NNW 20:30:39 17° NNW 20:30:39 17° NNW visible
17 Feb 6.2 16:44:38 10° WNW 16:49:08 23° NNW 16:53:40 10° NNE visible
17 Feb 6.2 18:31:23 10° NW 18:35:29 19° N 18:36:09 19° NNE visible
17 Feb 6.6 20:16:20 10° NNW 20:18:06 18° NNW 20:18:06 18° NNW visible
18 Feb 6.2 16:31:43 10° WNW 16:36:14 23° NNW 16:40:46 10° NNE visible
18 Feb 6.2 18:18:29 10° NW 18:22:34 19° N 18:23:35 18° NNE visible
18 Feb 6.5 20:03:26 10° NNW 20:05:32 20° NNW 20:05:32 20° NNW visible
19 Feb 6.1 16:18:48 10° WNW 16:23:19 23° NNW 16:27:51 10° NNE visible
19 Feb 6.1 18:05:35 10° NW 18:09:40 19° N 18:11:02 18° NNE visible
19 Feb 6.3 19:50:32 10° NNW 19:52:59 22° N 19:52:59 22° N visible
19 Feb 7.0 21:34:48 10° NW 21:34:57 11° NW 21:34:57 11° NW visible
20 Feb 6.1 16:05:52 10° WNW 16:10:25 23° NNW 16:14:57 10° NNE visible
20 Feb 6.1 17:52:40 10° NW 17:56:45 19° N 17:58:28 17° NNE visible
20 Feb 6.2 19:37:38 10° NNW 19:40:26 24° N 19:40:26 24° N visible
20 Feb 6.9 21:21:54 10° NW 21:22:23 13° NW 21:22:23 13° NW visible
21 Feb 6.1 15:52:58 10° WNW 15:57:31 23° NNW 16:02:03 10° NNE visible
21 Feb 6.1 17:39:45 10° NW 17:43:50 19° N 17:45:54 16° NNE visible
21 Feb 6.0 19:24:44 10° NNW 19:27:52 25° N 19:27:52 25° N visible
21 Feb 6.8 21:09:00 10° NW 21:09:50 14° NW 21:09:50 14° NW visible
22 Feb 6.1 15:40:03 10° WNW 15:44:35 23° NNW 15:49:08 10° NNE visible
22 Feb 6.1 17:26:51 10° NW 17:30:55 19° N 17:33:21 15° NE visible
22 Feb 5.9 19:11:50 10° NNW 19:15:18 27° N 19:15:18 27° N visible
22 Feb 6.7 20:56:06 10° NW 20:57:16 17° NW 20:57:16 17° NW visible
23 Feb 6.1 15:27:07 10° WNW 15:31:41 23° NNW 15:36:14 10° NNE visible
23 Feb 6.2 17:13:57 10° NW 17:18:00 19° N 17:20:47 14° NE visible
23 Feb 5.8 18:58:56 10° NNW 19:02:45 28° N 19:02:45 28° N visible
23 Feb 6.5 20:43:13 10° NW 20:44:43 19° NW 20:44:43 19° NW visible
